Regional Weather Roundup
Issued by NWS Green Bay, WI

Home | Current Version | Previous Version | Text Only | Print | Product List | Glossary On
Versions: 1 2 3 4 5 6 7 8 9 10 11 12 13 14 15 16 17 18 19 20 21 22 23 24 25 26 27 28 29 30 31 32 33 34 35 36 37 38 39 40 41 42 43 44 45 46 47 48 49 50
000
ASUS43 KGRB 011910
RWRGRB

NORTH-CENTRAL AND NORTHEAST WISCONSIN REGIONAL WEATHER ROUNDUP
NATIONAL WEATHER SERVICE GREEN BAY WI
200 PM CDT MON SEP 01 2014

WIZ005-009-010>012-018-019-012000-
NORTH CENTRAL WISCONSIN

CITY           SKY/WX    TMP DP  RH WIND       PRES   REMARKS
IRONWOOD       NOT AVBL
MANITOWISH WTR CLOUDY    67  62  83 W9        29.66S
ARBOR VITAE    PTSUNNY   67  62  84 W8        29.67R
EAGLE RIVER    CLOUDY    68  61  77 W14       29.65S
LAND O LAKES   HVY RAIN  65  60  84 W8G26     29.67R
RHINELANDER    PTSUNNY   70  61  73 W14       29.67S
PHILLIPS       PTSUNNY   71  62  73 W7        29.66F
ANTIGO         PTSUNNY   70  62  76 W15       29.67F
TOMAHAWK       MOSUNNY   70  60  70 W10G16    29.67S
MERRILL        LGT RAIN  69  65  85 W8        29.66F
$$

WIZ013-073-012000-
NORTHEAST WISCONSIN

CITY           SKY/WX    TMP DP  RH WIND       PRES   REMARKS
IRON MOUNTAIN  CLOUDY    71  62  73 SW8       29.61F
MARINETTE      CLOUDY    70  64  83 SW12      29.63S
OCONTO         CLOUDY    71  67  85 SW9       29.65S
$$

WIZ017-030-035>037-045-012000-
CENTRAL WISCONSIN

CITY           SKY/WX    TMP DP  RH WIND       PRES   REMARKS
MEDFORD        MOSUNNY   70  62  77 W9        29.69R
WAUSAU         LGT RAIN  70  63  78 SW12G21   29.67S
MOSINEE        PTSUNNY   70  66  88 SW13      29.69
MARSHFIELD     MOSUNNY   71  64  78 W9        29.69S
WISC RAPIDS    PTSUNNY   76  64  66 W14       29.70S
STEVENS POINT  PTSUNNY   70  63  78 W13       29.69S
WAUPACA        CLOUDY    71  68  90 SW8       29.69S
SHAWANO        CLOUDY    72  64  78 SW7       29.67S
CLINTONVILLE   DRIZZLE   70  64  83 SW7       29.67S
$$

WIZ038-039-048-051-012000-
FOX VALLEY

CITY           SKY/WX    TMP DP  RH WIND       PRES   REMARKS
NWS GREEN BAY  CLOUDY    71  67  87 SW14G23   29.67F
APPLETON       DRIZZLE   70  66  88 SW13      29.69F FOG
OSHKOSH        CLOUDY    72  65  78 W13G21    29.69S
FOND DU LAC    CLOUDY    73  64  73 SW13G24   29.70S
$$

WIZ022-050-052-012000-
EAST CENTRAL WISCONSIN

CITY           SKY/WX    TMP DP  RH WIND       PRES   REMARKS
STURGEON BAY   CLOUDY    72  64  78 SW16G23   29.66S
MANITOWOC      PTSUNNY   75  65  70 SW20G25   29.67F
SHEBOYGAN      CLOUDY    76  65  68 W9        29.69S
$$

LMZ563-521-522-541>543-012000-
LAKESHORE

STATION/POSITION TIME  TEMP    WIND        PRES    VSBY  WAVE
                       AIR SEA DIR/SP/G                  HT/PER
                 (UTC) (F)     (DEG/KT/KT) (MB)    (MI)  (FT/S)
SHEBOYGAN LKSHOR 1900   76 59  230/ 17/ 23 1004.9F
KEWAUNEE LKSHORE 1900   71     210/ 11/ 15 1003.6F
TWO RIVERS CG    1800                      1005.6      6   2
NORTHPORT PIER   1900   69     230/  6/ 10 1003.0F
N MID LAKE BUOY  1900   66 65  240/ 12/ 14 1002.8F         4/ 6
S GREEN BAY BUOY 1900   70     VRB 16/ 19  1005.3S
STURGEON BAY CG  1800   68 57  240/  7     1005.6   3 1/2  1
CHAMBERS ISLAND  1900   68     200/  4/ 11 1003.4F
MENOMINEE LKSHOR 1900   69     220/ 13/ 19 1004.3R
$$



USA.gov is the U.S. government's official web portal to all federal, state and local government web resources and services.